Résultats de la compétition "IR du Malsaucy" du 12-10-2008 organisée par le club 9006
     
  Télécharger le fichier CSV.  
     
     

 Circuit "A"

Licence Nom Prénom Temps CN
précédent
Score sur
la course
Différence
11390CLEMENT-AGONIStéphane1:11:5461256596+471
1518MULLERMarc1:15:2967296283-446
13620VIELBrieuc1:18:5959696004+35
4677PINEAULaurent1:19:4756915944+253
3210COCHEYBenoit1:21:0661935847-346
6599VERDENALBenoit1:21:5854935786+293
12762MARCHANDChristophe1:29:5145025278+776
5794MENGINPierre1:35:5447614945+184
8763CAILLETVincent1:36:5253524896-456
12778FROELICHERVincent1:37:4549284851-77
14050BROCHLaurent1:40:1449464731-215
13237POULAINAntoine1:47:5043074398+91
19024DALIBARDNicolas1:48:2738294373+544
11513HAURYGilles1:48:5650894353-736
10998RENAUDBernard1:49:1945374338-199
20129SEGUINNicolas1:49:2935604332+772
3719GEROMEYJ-Pierre2:01:2138503908+58
17562CARPENTIERRenaud2:01:37N/A3899N/A
3675CHALOPINMathieu2:13:3841903549-641
11391CLEMENT-AGONIBenjamin2:16:5844783462-1016
6901FOUCAULTHerve2:28:3126773193+516
16683NOEGELENFabian2:30:4833523145-207
1911MEYERKirianN/A60230-6023
346LAHAUSSEOlivierN/A39890-3989

  Indice de confiance du circuit (moyenne des différences entre CN et score sur la course des 3 à 10 premiers) : 222




 Circuit "B"

Licence Nom Prénom Temps CN
précédent
Score sur
la course
Différence
10906COLINFranck0:57:5058006473+673
6523WYMEREddie0:58:4167916379-412
1335BEAUDEUXPhilippe1:00:2654786194+716
3292DODINCeline1:00:3663896177-212
13040VILLARChristophe1:01:0759336125+192
736POURREAlain1:03:3359305891-39
9365BARLETGaelle1:07:0354085583+175
3723LUTHRINGERFrancois1:08:1054775492+15
2953VUILLEMINMichel1:09:2156345398-236
7982MANGIONEFrançois1:12:2353735172-201
14238PARISMarie1:14:4249265011+85
2796LEGALLAISJ-Luc1:14:5653584996-362
11430BERNAUERChristophe1:15:0251214989-132
5640HUEBERFrancois1:16:5746204865+245
6904POUPINFrank1:19:2743864712+326
12766LOGERobert1:20:3147414649-92
20047SCOTTChristopher1:22:32N/A4536N/A
312JOLYThierry1:23:2945354484-51
4334TERZIPierre1:24:3446064427-179
10719MAHLERGeorges1:24:3747334424-309
5631BETTINGERJ-Michel1:25:4742224364+142
12828REICHAlain1:27:1038474295+448
2099MORLONJ-Francois1:27:3244064277-129
20277BRULPORTDavid1:28:01N/A4253N/A
7983GUNTHERM-Christine1:29:4645464170-376
1910MEYERJ-Marc1:31:5345674074-493
745TINCHANTEstelle1:33:0444234022-401
1897FRICKBernard1:33:0836124019+407
20048HANAUERJean Marie1:33:4535083993+485
19741ROBERTMatthieu1:37:3134683839+371
13062STEINNicolas1:37:5840193821-198
15852CLEYET-MERLEChristophe1:39:14N/A3772N/A
1752GRANSARTRenaud1:40:5739163708-208
14582LAZARDTiphaine1:41:3438793686-193
632DUBROCAChristele1:41:5138373675-162
13973JACOTOTChristophe1:45:3035793548-31
2375MAKOVICKAEdwige1:45:4635513539-12
2377MAKOVICKAVanessa1:48:3833823446+64
10901RAVENELPhilippe1:48:3940873445-642
6534DEMAISONGuy1:50:4741773379-798
9265BASTIENAmelie1:50:5534623375-87
3407FLAMBEAUBruno1:54:2950633270-1793
3905JOUFFROYMichel1:55:5334333230-203
16642PRIOUClaire1:57:0733453196-149
13833TRIMAILLEIsabelle2:00:5729763095+119
8765CAILLETFrancois2:15:3134662762-704
17625MERCIERSylvie2:18:4927472697-50
20361GUILLOTBrunoN/AN/A0N/A
18931MAUVILLYKarineN/A30100-3010
20480ECKERTFrédéricN/AN/A0N/A
2379BILQUEZEricN/A43610-4361

  Indice de confiance du circuit (moyenne des différences entre CN et score sur la course des 3 à 10 premiers) : 96




 Circuit "C"

Licence Nom Prénom Temps CN
précédent
Score sur
la course
Différence
7260SUTTEROlivier0:46:5458615456-405
11875FRANCOISGerald0:47:1245605421+861
2760PAPILLONDaniel0:47:3050745387+313
3312CORDIERJacques0:49:4047475152+405
2100MORLONMarie0:50:1151935099-94
11440DUPOIRIEUXGilles0:50:4451015044-57
702WYMERIsabelle0:50:5151105032-78
5639HUEBERDiane0:52:2942584876+618
15739BELLIOlivier0:53:1739514802+851
7573OUDINBernard0:53:2046334798+165
4890CLERCGaston0:54:3744184685+267
3303MOUGELGabriel0:55:0448214647-174
1487MARCHESINSylvie0:55:1942244626+402
7911PERRINJ-Luc0:56:1945894544-45
2759PAPILLONCecile0:56:2244444540+96
7259SUTTERAriane0:57:1042154476+261
1086ROBERTChristian0:57:2146754462-213
17170VUILLEMINGuillaume0:58:4040734362+289
1906MERTZAndre0:59:0241354335+200
2712VUILLETChristian0:59:3645204293-227
19028SCHMIDT-MORGENROTHJacques0:59:4637634281+518
320BAGUEREYGilles1:01:0541044189+85
3415PIERRONClaude1:01:1140754182+107
14216VILLARIsabelle1:01:4832524141+889
4059FAIVREDaniel1:01:5644664132-334
2376MAKOVICKALibor1:05:0244073935-472
1509AUBRYMaurice1:05:2037713917+146
746TINCHANTJ-Marc1:05:4739643890-74
1710CERINIJ-Michel1:06:0235613875+314
7392DELORMEThierry1:06:47N/A3832N/A
9363BARLETJ-Pierre1:06:5536923824+132
2530LOCUSSERobert1:07:1036633810+147
13688FRANCOISAline1:07:5330463770+724
2894LEBIHANMarcel1:08:4045773727-850
10722MAHLERFelix1:08:5643683712-656
13692HAURYEvelyne1:09:0138683708-160
2268BOTTEMERChristian1:09:4138063672-134
2263LEMBLEAndre1:10:1336173644+27
13637KORCHAKLena1:10:5138843612-272
2730PERECatherine1:10:5538403608-232
12763LASSEIGNELaurent1:10:5733343607+273
12523DOREAlexandre1:12:0228483552+704
9437MANSUYBernard1:13:1739203492-428
10496DUPOIRIEUXSophie1:13:3338963479-417
738POURREValerie1:13:4541063470-636
14223FISCHERGuy1:14:0934473451+4
11507LEBIHANMartine1:14:2330673440+373
3413HUROTMichel1:14:3846033429-1174
2378MAKOVICKAVeronique1:14:5743433414-929
12522CHAPUISPatrick1:15:1030233404+381
2555RIAULTBernard1:15:2335933394-199
2370CHARLOTPatrick1:15:4636453377-268
9439MANSUYP-Yves1:17:2634913305-186
2368BENACEKVaclav1:17:4132643294+30
5533THIEBAULTJ-Philippe1:17:4634023290-112
10146ETIENNEDominique1:18:0737293276-453
54VIDONIRené1:18:1033863274-112
13061STEINVirginie1:18:1022733274+1001
2512ASTNorbert1:18:2129173266+349
15332MEYERPatricia1:19:2132483225-23
20219BEAUDEQUINMaxime1:19:2126263225+599
10903RAVENELManon1:20:2537203182-538
10902RAVENELVeronique1:20:4629533168+215
13178HOLLNicolas1:21:2229753145+170
13710WISSONBernard1:21:2429313144+213
4216GROSJEANThierry1:21:3930503134+84
1909MEYERCorinne1:22:3434183099-319
2386SUTTERJean1:22:41N/A3095N/A
12767LOGESophie1:23:2131703070-100
17713KAUFFMANNBaptiste1:23:4035113058-453
12146WISSONFlorent1:24:0631273043-84
17503LUDWIGSébastien1:25:1736293000-629
2445RIFFARDJ-Claude1:25:1931002999-101
20363GUILLOTMaxime1:26:23N/A2962N/A
11388CAILLETVeronique1:27:2229902929-61
4215CHAPUISLaurence1:28:5024792881+402
4391DODINYves1:33:2031422742-400
2524DUVALJacques1:33:4426472730+83
15297BOEHMYves1:36:1521832659+476
7387FOUCAULTMyriam1:36:3723782648+270
3414HUROTFlorence1:36:5328082641-167
2552KNOBLOCHFrancis1:36:5823712639+268
17626MERCIERThierry1:37:1524022631+229
4377PAOLUCCIRene-Claude1:41:4935012513-988
7900DELCOURTJ-Pierre1:47:4022832377+94
19554MARTINGilles1:51:38N/A2292N/A
3717GEROMEYDominique2:04:0126052063-542
3722GRANDJEANNathalie2:13:0226871923-764
20483MEYERCatherine2:19:14N/A1838N/A
10720GUIGNONSabineN/A27080-2708

  Indice de confiance du circuit (moyenne des différences entre CN et score sur la course des 3 à 10 premiers) : 67




 Circuit "D"

Licence Nom Prénom Temps CN
précédent
Score sur
la course
Différence
19017COURTOISYoann0:38:5235974624+1027
5436FLAMBEAUMathilde0:39:4046044531-73
12769LOGEPaul0:40:5333924396+1004
3651VAGNERChristine0:42:1540734254+181
10904RAVENELFanny0:45:5037333921+188
7787MORLONEmilie0:51:4330993475+376
9438MANSUYLaurette0:52:4630473406+359
1087ROBERTMartine0:52:4632213406+185
2404HODSONMichael0:53:3634253353-72
12768LOGELucie0:53:4833053340+35
4389THIEBAULDGeorges0:55:5334613216-245
19270PASQUAPierre1:00:1218372985+1148
11070DELORMESylvie1:02:29N/A2876N/A
3674CHALOPINCatherine1:02:4133062867-439
4378PAOLUCCIChristiane1:02:5130702859-211
310JOLYMauricette1:03:2927612831+70
7912PERRINM-Claudine1:03:4926582816+158
3288ARNOULDChantal1:04:2435672791-776
9364BARLETNancy1:05:1333352756-579
2761PAPILLONFrancoise1:05:2126842750+66
12102BOUVERETMichelle1:05:2228422749-93
1895SALORT - METZSylvie1:06:0123492722+373
1021DELERCERaymond1:06:0425262720+194
2547DESAINTJANClaude1:06:4626422692+50
2557VOGTChristiane1:07:4533872653-734
3302JEANPIERREM-Therese1:08:0330142641-373
13114BERNAUERLaurence1:08:1230992635-464
11389CLEMENT-AGONIJ-Pierre1:09:4932252574-651
7182BERGERM-Jose1:10:3426102547-63
10042DEMAISONAnais1:11:3119332513+580
15324ETIENNEBernadette1:13:5425092432-77
4392DODINGenevieve1:16:4019042344+440
9509BASTIENChantal1:20:3532282230-998
7910MOUGELDanielle1:23:3123592152-207
2446RIFFARDM-Lucie1:24:0431702138-1032
16129THIEBAUTEvelyne1:25:5925292090-439
2387SUTTEROdile1:26:1124852085-400
2511ASTClaudine1:26:4518302072+242
17329BICHOTTEVincent1:30:19N/A1990N/A
4321MINARDAgnes1:31:4618911958+67
2553KNOBLOCHMichele1:35:2220641884-180
340FISCHERM-Dominique1:36:4620151857-158
15295WISSONPetra1:38:3317801824+44
15296GREVETClaudie1:38:4211211821+700
19740MEMBREYAurore1:52:37N/A1596N/A
15538DOREIsabelle1:56:1419591546-413
9018DELCOURTJacqueline1:56:5913911536+145
7574OUDINM-ReineN/A29800-2980

  Indice de confiance du circuit (moyenne des différences entre CN et score sur la course des 3 à 10 premiers) : 117




 Circuit "E"

Licence Nom Prénom Temps CN
précédent
Score sur
la course
Différence
11092HUROTBenjamin0:25:4637643729-35
6779MAKOVICKAElsa0:29:5633383210-128
10077POURREMarion0:34:3228442783-61
14573JACQUETMartin0:34:4125352770+235
13638KORCHAKNathalie0:37:1430342581-453
7788MORLONLouise0:37:3324702559+89
19219RIETHMULLERMathilde0:38:3319052493+588
10909COLINCamille0:40:2925062374-132
19413HANAUERSébastien0:43:3925072201-306
10091LUTHRINGERColine0:45:2621532115-38
11508LEBIHANBarbara0:48:4723851970-415
20364GUILLOTJeanne0:49:58N/A1923N/A
17494ANDRIAMORAZAFIHANTASophie0:53:4923781786-592
19984BASSETLydie0:59:2511501617+467
12829REICHM-Louise1:00:0520141599-415
2546DESAINTJANAlice1:16:3920071254-753
20449VIOLETTEVincent1:36:24N/A997N/A
13960GROSJEANApolline2:30:571522637-885
19736GHEERAERTHugoN/A19510-1951
5476CLERCFlorentN/A19020-1902

  Indice de confiance du circuit (moyenne des différences entre CN et score sur la course des 3 à 10 premiers) : 172




 Circuit "F"

Licence Nom Prénom Temps CN
précédent
Score sur
la course
Différence
18304BEAUDEUXThéo0:20:1933462764-582
14273POURREJeremi0:24:0425792333-246
15327HUROTEden0:24:4021832276+93
17171VUILLEMINPauline0:24:4826272264-363
17495ANDRIAMORAZAFIHANTANirina0:27:2820272044+17
20408HANAUERFlorence0:28:29N/A1971N/A
13639KORCHAKEmilie0:28:4421671954-213
16132GROSJEANCapucine0:29:4415031889+386
20365GUILLOTEmile0:44:11N/A1271N/A
13874FOUCAULTDorian0:54:24N/A1032N/A
19027DALIBARDLéo0:54:24N/A1032N/A
19026DALIBARDMélanie0:54:26N/A1032N/A
19025DALIBARDMonika0:54:309251030+105
2744VUILLETGermaine2:04:45705450-255

  Indice de confiance du circuit (moyenne des différences entre CN et score sur la course des 3 à 10 premiers) : 325






 Retour